Logan Peak - 24 Hour Table
Date & TimeSolar
Radiation
(W/m²)
Wind
Speed
(mph)
Wind
Direction
(degrees)
Air
Temperature
(°F)
Relative
Humidity
(%)
Barometeric
Pressure
(inHg)
2018/02/17 12:00 618 0.0 0 16.5 98 29.76
2018/02/17 11:00 396 0.0 0 16.5 97 29.77
2018/02/17 10:00 256 0.0 0 16.7 96 29.77
2018/02/17 09:00 130 0.0 0 14.3 97 29.78
2018/02/17 08:00 18 0.0 0 12.9 96 29.77
2018/02/17 07:00 0 0.0 0 12.8 96 29.76
2018/02/17 06:00 0 0.0 0 12.7 96 29.77
2018/02/17 05:00 0 0.0 0 12.0 96 29.76
2018/02/17 04:00 0 0.0 0 11.3 96 29.75
2018/02/17 03:00 0 0.0 0 11.5 95 29.75
2018/02/17 02:00 0 0.0 157 12.3 96 29.75
2018/02/17 01:00 0 0.0 142 12.4 96 29.74
2018/02/17 00:00 0 0.0 136 11.4 96 29.74
2018/02/16 23:00 0 0.0 121 11.1 95 29.73
2018/02/16 22:00 0 0.0 125 10.9 95 29.71
2018/02/16 21:00 0 0.0 141 10.2 95 29.70
2018/02/16 20:00 0 0.0 0 8.7 95 29.70
2018/02/16 19:00 0 0.0 0 8.6 94 29.71
2018/02/16 18:00 22 0.0 0 8.2 94 29.70
2018/02/16 17:00 82 0.0 0 8.6 94 29.71
2018/02/16 16:00 135 0.0 0 8.4 94 29.70
2018/02/16 15:00 176 0.0 0 8.0 94 29.72
2018/02/16 14:00 426 0.0 0 9.8 94 29.72
2018/02/16 13:00 474 0.0 0 8.9 94 29.74